M I D A S
Marine Information and Data Acquisition System
Tripno 1645 of the Zeeleeuw from 2009-02-20 08:07:55 to 2009-02-20 15:34:15
Back to CruiseResearch ActivitiesStationsMapUnderway DataData graphs

EquipmentUnitsComment
TimeDGPSUTC
LatitudeDGPSDM.mWGS84
LongitudeDGPSDM.mWGS84
TemperatureSBE03/SBE38deg celciusITS90
ConductivitySBE21S/mITS90
SalinitySBE21 Practical Salinity Units
ChlorophylAChelsea fluorimeterg/lCalibrated in Aceton
Missing or incorrect values are displayed as -999
Sea surface data collected by the RV Zeeleeuw from 2009-02-20 07:52:33 to 2009-02-20 15:38:39
Time Latitude Longitude Temperature Conductivity Salinity ChlorophylA
2009-02-20 07:53:39 51°13.679 2°55.901 -999 0.06845 0.383879 -1.279161
2009-02-20 07:54:39 51°13.696 2°55.814 -999 0.06845 0.38383 -1.279161
2009-02-20 07:55:39 51°13.698 2°55.741 -999 0.068553 0.384384 -1.244337
2009-02-20 07:56:39 51°13.705 2°55.747 -999 0.068553 0.384356 -1.279161
2009-02-20 07:57:39 51°13.696 2°55.74 -999 0.068553 0.384377 -1.244337
2009-02-20 07:58:39 51°13.756 2°55.692 -999 0.068553 0.384342 -1.244337
2009-02-20 07:59:39 51°13.859 2°55.611 -999 0.068553 0.384285 -1.313985
2009-02-20 08:00:39 51°13.977 2°55.532 -999 0.068553 0.384257 -1.279161
2009-02-20 08:01:39 51°14.103 2°55.445 -999 0.068553 0.384229 -1.313985
2009-02-20 08:02:39 51°14.225 2°55.327 -999 0.068553 0.384208 -1.279161
2009-02-20 08:03:39 51°14.331 2°55.136 -999 0.068553 0.384166 -1.244337
2009-02-20 08:04:39 51°14.449 2°54.899 -999 0.068553 0.384145 -1.279161
2009-02-20 08:05:39 51°14.592 2°54.687 -999 0.068553 0.384166 -1.279161
2009-02-20 08:06:39 51°14.78 2°54.562 -999 0.068553 0.384131 -1.279161
2009-02-20 08:07:39 51°14.969 2°54.441 -999 0.068553 0.384152 -1.279161
2009-02-20 08:08:39 51°15.154 2°54.302 -999 0.068553 0.384166 -1.279161
2009-02-20 08:09:39 51°15.332 2°54.148 -999 0.068553 0.38418 -1.279161
2009-02-20 08:10:39 51°15.513 2°54.004 -999 0.068553 0.384215 -1.313985
2009-02-20 08:11:39 51°15.693 2°53.855 -999 0.068553 0.384236 -1.313985
2009-02-20 08:12:39 51°15.872 2°53.703 -999 0.068553 0.384243 -1.279161
2009-02-20 08:13:39 51°16.05 2°53.549 -999 0.068553 0.384313 -1.313985
2009-02-20 08:14:39 51°16.228 2°53.398 -999 0.068553 0.384384 -1.313985
2009-02-20 08:15:39 51°16.41 2°53.253 -999 0.068553 0.384468 -1.279161
2009-02-20 08:16:39 51°16.583 2°53.095 -999 0.068553 0.384532 -1.313985
2009-02-20 08:17:39 51°16.76 2°52.946 -999 0.068553 0.384581 -1.279161
2009-02-20 08:18:39 51°16.934 2°52.791 -999 0.06845 0.38404 -1.313985
2009-02-20 08:19:39 51°17.108 2°52.634 -999 0.06845 0.384118 -1.313985
2009-02-20 08:20:39 51°17.271 2°52.45 -999 0.06845 0.384167 -1.279161
2009-02-20 08:21:39 51°17.422 2°52.24 -999 0.06845 0.384223 -1.313985
2009-02-20 08:22:39 51°17.571 2°52.026 -999 0.06845 0.38428 -1.279161
2009-02-20 08:23:38 51°17.717 2°51.812 -999 0.068347 0.38376 -1.313985
2009-02-20 08:24:38 51°17.865 2°51.594 -999 0.068347 0.383844 -1.313985
2009-02-20 08:25:38 51°18.013 2°51.377 -999 0.068347 0.383922 -1.313985
2009-02-20 08:26:38 51°18.161 2°51.159 -999 0.068347 0.383992 -1.313985
2009-02-20 08:27:39 51°18.309 2°50.934 -999 0.068347 0.384063 -1.279161
2009-02-20 08:28:39 51°18.45 2°50.704 -999 0.068244 0.383521 -1.313985
2009-02-20 08:29:39 51°18.596 2°50.478 -999 0.068244 0.383592 -1.279161
2009-02-20 08:30:38 51°18.745 2°50.265 -999 0.068244 0.383669 -1.313985
2009-02-20 08:31:38 51°18.898 2°50.049 -999 0.068244 0.383754 -1.279161
2009-02-20 08:32:38 51°19.041 2°49.824 -999 0.068244 0.383831 -1.313985
2009-02-20 08:33:38 51°19.192 2°49.612 -999 0.068141 0.383304 -1.279161
2009-02-20 08:34:38 51°19.341 2°49.397 -999 0.068141 0.383395 -1.279161
2009-02-20 08:35:38 51°19.489 2°49.18 -999 0.068141 0.383466 -1.313985
2009-02-20 08:36:38 51°19.639 2°48.967 -999 0.068141 0.383543 -1.279161
2009-02-20 08:37:38 51°19.789 2°48.751 -999 0.068141 0.383628 -1.279161
2009-02-20 08:38:38 51°19.936 2°48.529 -999 0.068038 0.3831 -1.279161
2009-02-20 08:39:38 51°20.081 2°48.306 -999 0.068038 0.383163 -1.313985
2009-02-20 08:40:38 51°20.231 2°48.09 -999 0.068038 0.383241 -1.313985
2009-02-20 08:41:38 51°20.415 2°47.947 -999 0.068038 0.383347 -1.348809
2009-02-20 08:42:38 51°20.606 2°47.824 -999 0.068038 0.383431 -1.313985
2009-02-20 08:43:38 51°20.796 2°47.701 -999 0.068038 0.383509 -1.279161
2009-02-20 08:44:38 51°20.985 2°47.577 -999 0.068038 0.383594 -1.279161
2009-02-20 08:45:38 51°21.163 2°47.42 -999 0.067935 0.383072 -1.279161
2009-02-20 08:46:38 51°21.318 2°47.218 -999 0.067935 0.383128 -1.279161
2009-02-20 08:47:38 51°21.462 2°46.998 -999 0.067935 0.383213 -1.279161
2009-02-20 08:48:38 51°21.601 2°46.771 -999 0.067935 0.383298 -1.279161
2009-02-20 08:49:38 51°21.738 2°46.542 -999 0.067935 0.383397 -1.313985
2009-02-20 08:50:38 51°21.876 2°46.313 -999 0.067935 0.383489 -1.279161
2009-02-20 08:51:38 51°22.011 2°46.077 -999 0.067832 0.382988 -1.279161
2009-02-20 08:52:39 51°22.149 2°45.838 -999 0.067832 0.383101 -1.279161
2009-02-20 08:53:38 51°22.288 2°45.612 -999 0.067832 0.3832 -1.279161
2009-02-20 08:54:38 51°22.427 2°45.378 -999 0.067832 0.383313 -1.279161
2009-02-20 08:55:38 51°22.564 2°45.145 -999 0.06773 0.382819 -1.279161
2009-02-20 08:56:38 51°22.706 2°44.919 -999 0.06773 0.382932 -1.279161
2009-02-20 08:57:38 51°22.837 2°44.706 -999 0.06773 0.383031 -1.279161
2009-02-20 08:58:38 51°22.975 2°44.484 -999 0.06773 0.383159 -1.279161
2009-02-20 08:59:38 51°23.119 2°44.264 -999 0.067627 0.382663 -1.279161
2009-02-20 09:00:38 51°23.259 2°44.039 -999 0.067627 0.382784 -1.279161
2009-02-20 09:01:38 51°23.394 2°43.81 -999 0.067627 0.382897 -1.279161
2009-02-20 09:02:38 51°23.526 2°43.578 -999 0.067627 0.383018 -1.279161
2009-02-20 09:03:38 51°23.663 2°43.35 -999 0.067524 0.382536 -1.279161
2009-02-20 09:04:38 51°23.8 2°43.126 -999 0.067524 0.382664 -1.279161
2009-02-20 09:05:38 51°23.934 2°42.898 -999 0.067524 0.382778 -1.279161
2009-02-20 09:06:38 51°24.072 2°42.674 -999 0.067524 0.382899 -1.279161
2009-02-20 09:07:38 51°24.205 2°42.442 -999 0.067421 0.382416 -1.313985
2009-02-20 09:08:39 51°24.35 2°42.219 -999 0.067421 0.382551 -1.279161
2009-02-20 09:09:38 51°24.491 2°42.003 -999 0.067421 0.382672 -1.279161
2009-02-20 09:10:38 51°24.634 2°41.779 -999 0.067421 0.382815 -1.279161
2009-02-20 09:11:38 51°24.774 2°41.55 -999 0.067318 0.382332 -1.279161
2009-02-20 09:12:39 51°24.916 2°41.319 -999 0.067318 0.382467 -1.279161
2009-02-20 09:13:38 51°25.056 2°41.102 -999 0.067318 0.382603 -1.279161
2009-02-20 09:14:38 51°25.197 2°40.879 -999 0.067215 0.38214 -1.279161
2009-02-20 09:15:38 51°25.341 2°40.659 -999 0.067215 0.382283 -1.279161
2009-02-20 09:16:38 51°25.485 2°40.439 -999 0.067215 0.38244 -1.279161
2009-02-20 09:17:39 51°25.63 2°40.214 -999 0.067215 0.382597 -1.279161
2009-02-20 09:18:38 51°25.77 2°39.997 -999 0.067112 0.382156 -1.279161
2009-02-20 09:19:38 51°25.915 2°39.779 -999 0.067112 0.382334 -1.279161
2009-02-20 09:20:38 51°26.056 2°39.556 -999 0.067009 0.3819 -1.279161
2009-02-20 09:21:38 51°26.2 2°39.336 -999 0.067009 0.382093 -1.279161
2009-02-20 09:22:38 51°26.348 2°39.122 -999 0.067009 0.382271 -1.279161
2009-02-20 09:23:38 51°26.497 2°38.905 -999 0.066906 0.381858 -1.279161
2009-02-20 09:24:38 51°26.645 2°38.685 -999 0.066906 0.382065 -1.279161
2009-02-20 09:25:38 51°26.794 2°38.467 -999 0.066803 0.381658 -1.279161
2009-02-20 09:26:39 51°26.941 2°38.241 -999 0.066803 0.381845 -1.279161
2009-02-20 09:27:38 51°27.078 2°38.018 -999 0.066803 0.382031 -1.279161
2009-02-20 09:28:39 51°27.222 2°37.791 -999 0.066701 0.381616 -1.279161
2009-02-20 09:29:38 51°27.361 2°37.574 -999 0.066701 0.381832 -1.279161
2009-02-20 09:30:38 51°27.502 2°37.353 -999 0.066701 0.38204 -1.279161
2009-02-20 09:31:38 51°27.643 2°37.13 -999 0.066598 0.381639 -1.279161
2009-02-20 09:32:38 51°27.784 2°36.908 -999 0.066598 0.38187 -1.279161
2009-02-20 09:33:38 51°27.921 2°36.685 -999 0.066495 0.381475 -1.279161
2009-02-20 09:34:38 51°28.061 2°36.465 -999 0.066495 0.381699 -1.244337
2009-02-20 09:35:38 51°28.202 2°36.246 -999 0.066495 0.381908 -1.279161
2009-02-20 09:36:38 51°28.341 2°36.028 -999 0.066392 0.38152 -1.279161
2009-02-20 09:37:39 51°28.479 2°35.802 -999 0.066392 0.381737 -1.279161
2009-02-20 09:38:38 51°28.614 2°35.583 -999 0.066392 0.381954 -1.279161
2009-02-20 09:39:38 51°28.784 2°35.433 -999 0.066392 0.382149 -1.279161
2009-02-20 09:40:38 51°28.982 2°35.441 -999 0.066289 0.38174 -1.279161
2009-02-20 09:41:38 51°29.173 2°35.572 -999 0.066289 0.381913 -1.279161
2009-02-20 09:42:38 51°29.361 2°35.723 -999 0.066289 0.382051 -1.279161
2009-02-20 09:43:38 51°29.547 2°35.874 -999 0.066289 0.382211 -1.279161
2009-02-20 09:44:39 51°29.739 2°36.024 -999 0.066186 0.381721 -1.244337
2009-02-20 09:45:38 51°29.927 2°36.159 -999 0.066186 0.381822 -1.279161
2009-02-20 09:46:38 51°30.122 2°36.284 -999 0.066186 0.381917 -1.279161
2009-02-20 09:47:38 51°30.317 2°36.401 -999 0.066186 0.382004 -1.279161
2009-02-20 09:48:39 51°30.515 2°36.522 -999 0.066186 0.382098 -1.279161
2009-02-20 09:49:39 51°30.713 2°36.619 -999 0.066083 0.381571 -1.279161
2009-02-20 09:50:38 51°30.908 2°36.718 -999 0.066083 0.381666 -1.279161
2009-02-20 09:51:39 51°31.108 2°36.83 -999 0.066083 0.38176 -1.279161
2009-02-20 09:52:38 51°31.302 2°36.936 -999 0.066083 0.381847 -1.279161
2009-02-20 09:53:39 51°31.503 2°37.047 -999 0.066083 0.381942 -1.279161
2009-02-20 09:54:38 51°31.696 2°37.154 -999 0.066083 0.382029 -1.279161
2009-02-20 09:55:38 51°31.893 2°37.264 -999 0.066083 0.382102 -1.279161
2009-02-20 09:56:39 51°32.093 2°37.376 -999 0.066083 0.382197 -1.279161
2009-02-20 09:57:38 51°32.287 2°37.483 -999 0.066083 0.382277 -1.279161
2009-02-20 09:58:39 51°32.476 2°37.584 -999 0.066083 0.382357 -1.279161
2009-02-20 09:59:38 51°32.669 2°37.691 -999 0.066083 0.382438 -1.279161
2009-02-20 10:00:39 51°32.873 2°37.805 -999 0.06598 0.381895 -1.279161
2009-02-20 10:01:38 51°33.071 2°37.914 -999 0.06598 0.381968 -1.279161
2009-02-20 10:02:39 51°33.275 2°38.024 -999 0.06598 0.382026 -1.279161
2009-02-20 10:03:38 51°33.472 2°38.134 -999 0.06598 0.382092 -1.279161
2009-02-20 10:04:39 51°33.677 2°38.239 -999 0.06598 0.38215 -1.279161
2009-02-20 10:05:39 51°33.878 2°38.348 -999 0.06598 0.382201 -1.279161
2009-02-20 10:06:38 51°34.076 2°38.455 -999 0.06598 0.38226 -1.279161
2009-02-20 10:07:39 51°34.28 2°38.571 -999 0.06598 0.382318 -1.279161
2009-02-20 10:08:38 51°34.478 2°38.686 -999 0.06598 0.382355 -1.279161
2009-02-20 10:09:39 51°34.682 2°38.804 -999 0.06598 0.382406 -1.279161
2009-02-20 10:10:38 51°34.879 2°38.915 -999 0.06598 0.382465 -1.279161
2009-02-20 10:11:38 51°35.079 2°39.032 -999 0.06598 0.382516 -1.279161
2009-02-20 10:12:38 51°35.282 2°39.131 -999 0.06598 0.382574 -1.279161
2009-02-20 10:13:39 51°35.49 2°39.225 -999 0.06598 0.382626 -1.279161
2009-02-20 10:14:38 51°35.691 2°39.314 -999 0.065877 0.382074 -1.279161
2009-02-20 10:15:38 51°35.895 2°39.401 -999 0.065877 0.382126 -1.279161
2009-02-20 10:16:39 51°36.102 2°39.497 -999 0.065877 0.382177 -1.279161
2009-02-20 10:17:38 51°36.303 2°39.591 -999 0.065877 0.382228 -1.279161
2009-02-20 10:18:39 51°36.51 2°39.685 -999 0.065877 0.382279 -1.279161
2009-02-20 10:19:38 51°36.712 2°39.775 -999 0.065877 0.382338 -1.279161
2009-02-20 10:20:39 51°36.92 2°39.871 -999 0.065877 0.382389 -1.279161
2009-02-20 10:21:38 51°37.121 2°39.96 -999 0.065877 0.382426 -1.279161
2009-02-20 10:22:38 51°37.325 2°40.057 -999 0.065877 0.38247 -1.279161
2009-02-20 10:23:39 51°37.533 2°40.151 -999 0.065877 0.382499 -1.279161
2009-02-20 10:24:39 51°37.737 2°40.247 -999 0.065877 0.382536 -1.244337
2009-02-20 10:25:39 51°37.942 2°40.34 -999 0.065877 0.382573 -1.279161
2009-02-20 10:26:38 51°38.145 2°40.434 -999 0.065877 0.382609 -1.244337
2009-02-20 10:27:39 51°38.354 2°40.532 -999 0.065877 0.382653 -1.279161
2009-02-20 10:28:38 51°38.557 2°40.623 -999 0.065877 0.38269 -1.279161
2009-02-20 10:29:39 51°38.767 2°40.724 -999 0.065877 0.382727 -1.279161
2009-02-20 10:30:38 51°38.967 2°40.836 -999 0.065877 0.382778 -1.279161
2009-02-20 10:31:38 51°39.171 2°40.945 -999 0.065877 0.382822 -1.279161
2009-02-20 10:32:39 51°39.378 2°41.061 -999 0.065774 0.382248 -1.279161
2009-02-20 10:33:38 51°39.577 2°41.171 -999 0.065774 0.382292 -1.279161
2009-02-20 10:34:39 51°39.784 2°41.289 -999 0.065774 0.382336 -1.313985
2009-02-20 10:35:38 51°39.983 2°41.401 -999 0.065774 0.38238 -1.279161
2009-02-20 10:36:39 51°40.188 2°41.516 -999 0.065774 0.382432 -1.279161
2009-02-20 10:37:39 51°40.391 2°41.623 -999 0.065774 0.382476 -1.279161
2009-02-20 10:38:39 51°40.595 2°41.725 -999 0.065774 0.382512 -1.279161
2009-02-20 10:39:39 51°40.797 2°41.835 -999 0.065774 0.382557 -1.279161
2009-02-20 10:40:39 51°40.998 2°41.951 -999 0.065774 0.382608 -1.279161
2009-02-20 10:41:39 51°41.201 2°42.063 -999 0.065774 0.382645 -1.279161
2009-02-20 10:42:38 51°41.4 2°42.171 -999 0.065774 0.382682 -1.279161
2009-02-20 10:43:39 51°41.607 2°42.283 -999 0.065774 0.382748 -1.279161
2009-02-20 10:44:38 51°41.806 2°42.391 -999 0.065774 0.382785 -1.244337
2009-02-20 10:45:39 51°42.013 2°42.5 -999 0.065774 0.382807 -1.279161
2009-02-20 10:46:39 51°42.216 2°42.613 -999 0.065774 0.382858 -1.279161
2009-02-20 10:47:38 51°42.415 2°42.722 -999 0.065774 0.382917 -1.279161
2009-02-20 10:48:39 51°42.621 2°42.834 -999 0.065774 0.382954 -1.279161
2009-02-20 10:49:39 51°42.823 2°42.945 -999 0.065774 0.382998 -1.244337
2009-02-20 10:50:39 51°43.025 2°43.056 -999 0.065774 0.383042 -1.244337
2009-02-20 10:51:38 51°43.223 2°43.172 -999 0.065774 0.383079 -1.279161
2009-02-20 10:52:39 51°43.429 2°43.289 -999 0.065672 0.382504 -1.279161
2009-02-20 10:53:38 51°43.605 2°43.471 -999 0.065672 0.382533 -1.279161
2009-02-20 10:54:39 51°43.703 2°43.78 -999 0.065672 0.382577 -1.279161
2009-02-20 10:55:39 51°43.673 2°44.109 -999 0.065672 0.382622 -1.279161
2009-02-20 10:56:39 51°43.54 2°44.358 -999 0.065672 0.382651 -1.279161
2009-02-20 10:57:39 51°43.404 2°44.605 -999 0.065672 0.382754 -1.279161
2009-02-20 10:58:38 51°43.286 2°44.868 -999 0.065672 0.382799 -1.279161
2009-02-20 10:59:39 51°43.172 2°45.15 -999 0.065672 0.382813 -1.279161
2009-02-20 11:00:39 51°43.058 2°45.427 -999 0.065672 0.38288 -1.279161
2009-02-20 11:01:39 51°42.944 2°45.702 -999 0.065672 0.382902 -1.279161
2009-02-20 11:02:38 51°42.823 2°45.959 -999 0.065672 0.382954 -1.279161
2009-02-20 11:03:39 51°42.654 2°46.134 -999 0.065672 0.383005 -1.279161
2009-02-20 11:04:39 51°42.471 2°46.087 -999 0.065672 0.383028 -1.279161
2009-02-20 11:05:39 51°42.299 2°45.958 -999 0.065672 0.383087 -1.279161
2009-02-20 11:06:39 51°42.121 2°45.853 -999 0.065569 0.382503 -1.279161
2009-02-20 11:07:38 51°41.946 2°45.744 -999 0.065569 0.382547 -1.279161
2009-02-20 11:08:39 51°41.766 2°45.635 -999 0.065569 0.382599 -1.279161
2009-02-20 11:09:39 51°41.589 2°45.522 -999 0.065569 0.38265 -1.279161
2009-02-20 11:10:39 51°41.41 2°45.414 -999 0.065569 0.382687 -1.279161
2009-02-20 11:11:39 51°41.235 2°45.307 -999 0.065569 0.382754 -1.244337
2009-02-20 11:12:39 51°41.057 2°45.2 -999 0.065569 0.382769 -1.279161
2009-02-20 11:13:39 51°40.88 2°45.087 -999 0.065569 0.382798 -1.279161
2009-02-20 11:14:39 51°40.704 2°44.972 -999 0.065569 0.38285 -1.279161
2009-02-20 11:15:39 51°40.526 2°44.861 -999 0.065569 0.38288 -1.279161
2009-02-20 11:16:39 51°40.35 2°44.752 -999 0.065569 0.382924 -1.279161
2009-02-20 11:17:39 51°40.173 2°44.636 -999 0.065569 0.382968 -1.279161
2009-02-20 11:18:39 51°39.997 2°44.519 -999 0.065569 0.383013 -1.279161
2009-02-20 11:19:39 51°39.822 2°44.409 -999 0.065569 0.383057 -1.279161
2009-02-20 11:20:39 51°39.644 2°44.295 -999 0.065569 0.383079 -1.279161
2009-02-20 11:21:39 51°39.465 2°44.184 -999 0.065569 0.383139 -1.279161
2009-02-20 11:22:39 51°39.288 2°44.071 -999 0.065569 0.383168 -1.279161
2009-02-20 11:23:38 51°39.115 2°43.961 -999 0.065569 0.383235 -1.313985
2009-02-20 11:24:39 51°38.937 2°43.848 -999 0.065569 0.383272 -1.279161
2009-02-20 11:25:39 51°38.764 2°43.733 -999 0.065569 0.383331 -1.279161
2009-02-20 11:26:39 51°38.589 2°43.614 -999 0.065569 0.383376 -1.279161
2009-02-20 11:27:39 51°38.413 2°43.495 -999 0.065569 0.383413 -1.279161
2009-02-20 11:28:39 51°38.238 2°43.378 -999 0.065569 0.38345 -1.279161
2009-02-20 11:29:39 51°38.064 2°43.262 -999 0.065466 0.382887 -1.279161
2009-02-20 11:30:39 51°37.89 2°43.142 -999 0.065466 0.382924 -1.279161
2009-02-20 11:31:39 51°37.715 2°43.024 -999 0.065466 0.382954 -1.279161
2009-02-20 11:32:39 51°37.54 2°42.904 -999 0.065466 0.382998 -1.279161
2009-02-20 11:33:39 51°37.364 2°42.78 -999 0.065466 0.38305 -1.279161
2009-02-20 11:34:39 51°37.189 2°42.657 -999 0.065466 0.383095 -1.279161
2009-02-20 11:35:39 51°37.012 2°42.533 -999 0.065466 0.383154 -1.279161
2009-02-20 11:36:39 51°36.834 2°42.409 -999 0.065466 0.383184 -1.313985
2009-02-20 11:37:39 51°36.657 2°42.289 -999 0.065466 0.383221 -1.279161
2009-02-20 11:38:39 51°36.48 2°42.166 -999 0.065466 0.383266 -1.279161
2009-02-20 11:39:39 51°36.3 2°42.047 -999 0.065466 0.383288 -1.279161
2009-02-20 11:40:39 51°36.121 2°41.922 -999 0.065466 0.383355 -1.279161
2009-02-20 11:41:39 51°35.943 2°41.798 -999 0.065466 0.383385 -1.279161
2009-02-20 11:42:39 51°35.765 2°41.671 -999 0.065466 0.383444 -1.279161
2009-02-20 11:43:39 51°35.584 2°41.551 -999 0.065466 0.383481 -1.279161
2009-02-20 11:44:39 51°35.406 2°41.425 -999 0.065466 0.383518 -1.279161
2009-02-20 11:45:39 51°35.227 2°41.302 -999 0.065466 0.383563 -1.279161
2009-02-20 11:46:39 51°35.048 2°41.181 -999 0.065466 0.383593 -1.279161
2009-02-20 11:47:39 51°34.868 2°41.055 -999 0.065466 0.383623 -1.279161
2009-02-20 11:48:39 51°34.687 2°40.938 -999 0.065466 0.383682 -1.279161
2009-02-20 11:49:39 51°34.505 2°40.824 -999 0.065466 0.383734 -1.279161
2009-02-20 11:50:39 51°34.324 2°40.712 -999 0.065466 0.383779 -1.279161
2009-02-20 11:51:39 51°34.146 2°40.589 -999 0.065466 0.383824 -1.279161
2009-02-20 11:52:39 51°33.965 2°40.468 -999 0.065466 0.383869 -1.279161
2009-02-20 11:53:39 51°33.785 2°40.358 -999 0.065466 0.383913 -1.279161
2009-02-20 11:54:39 51°33.601 2°40.255 -999 0.065466 0.383958 -1.279161
2009-02-20 11:55:39 51°33.418 2°40.154 -999 0.065363 0.383379 -1.279161
2009-02-20 11:56:39 51°33.237 2°40.043 -999 0.065363 0.383408 -1.279161
2009-02-20 11:57:39 51°33.054 2°39.937 -999 0.065363 0.383461 -1.279161
2009-02-20 11:58:39 51°32.876 2°39.834 -999 0.065363 0.383498 -1.279161
2009-02-20 11:59:39 51°32.716 2°39.742 -999 0.065363 0.383535 -1.279161
2009-02-20 12:00:39 51°32.529 2°39.682 -999 0.065363 0.383595 -1.279161
2009-02-20 12:01:39 51°32.338 2°39.714 -999 0.065363 0.383617 -1.279161
2009-02-20 12:02:39 51°32.173 2°39.872 -999 0.065363 0.383662 -1.279161
2009-02-20 12:03:39 51°32.111 2°40.165 -999 0.065363 0.383677 -1.279161
2009-02-20 12:04:39 51°32.137 2°40.495 -999 0.065363 0.383692 -1.279161
2009-02-20 12:05:39 51°32.152 2°40.829 -999 0.065363 0.383722 -1.279161
2009-02-20 12:06:39 51°32.155 2°41.163 -999 0.065363 0.383759 -1.279161
2009-02-20 12:07:39 51°32.15 2°41.496 -999 0.065363 0.383804 -1.244337
2009-02-20 12:08:39 51°32.152 2°41.825 -999 0.065363 0.383841 -1.244337
2009-02-20 12:09:39 51°32.279 2°42.047 -999 0.065363 0.383864 -1.279161
2009-02-20 12:10:39 51°32.478 2°42.134 -999 0.065363 0.383871 -1.244337
2009-02-20 12:11:39 51°32.675 2°42.249 -999 0.065363 0.383901 -1.279161
2009-02-20 12:12:39 51°32.871 2°42.368 -999 0.065363 0.383938 -1.279161
2009-02-20 12:13:39 51°33.067 2°42.492 -999 0.065363 0.383968 -1.244337
2009-02-20 12:14:39 51°33.265 2°42.61 -999 0.065363 0.383983 -1.279161
2009-02-20 12:15:39 51°33.462 2°42.735 -999 0.065363 0.384013 -1.279161
2009-02-20 12:16:39 51°33.657 2°42.862 -999 0.065363 0.384043 -1.279161
2009-02-20 12:17:39 51°33.853 2°42.987 -999 0.065363 0.384065 -1.279161
2009-02-20 12:18:39 51°34.05 2°43.114 -999 0.065363 0.384095 -1.279161
2009-02-20 12:19:39 51°34.246 2°43.241 -999 0.065363 0.384125 -1.279161
2009-02-20 12:20:39 51°34.443 2°43.37 -999 0.065363 0.384155 -1.279161
2009-02-20 12:21:39 51°34.639 2°43.496 -999 0.065363 0.384178 -1.279161
2009-02-20 12:22:39 51°34.837 2°43.627 -999 0.065363 0.384215 -1.279161
2009-02-20 12:23:39 51°35.034 2°43.753 -999 0.065363 0.38423 -1.279161
2009-02-20 12:24:39 51°35.231 2°43.877 -999 0.065363 0.38426 -1.279161
2009-02-20 12:25:39 51°35.428 2°44.006 -999 0.065363 0.384275 -1.279161
2009-02-20 12:26:39 51°35.623 2°44.135 -999 0.065363 0.384305 -1.279161
2009-02-20 12:27:39 51°35.818 2°44.264 -999 0.065363 0.384328 -1.279161
2009-02-20 12:28:39 51°36.012 2°44.393 -999 0.065363 0.38435 -1.279161
2009-02-20 12:29:39 51°36.207 2°44.525 -999 0.065363 0.384372 -1.279161
2009-02-20 12:30:39 51°36.401 2°44.652 -999 0.065363 0.384395 -1.279161
2009-02-20 12:31:39 51°36.597 2°44.775 -999 0.065363 0.384432 -1.279161
2009-02-20 12:32:39 51°36.793 2°44.898 -999 0.065363 0.384455 -1.279161
2009-02-20 12:33:39 51°36.989 2°45.023 -999 0.065363 0.384477 -1.279161
2009-02-20 12:34:39 51°37.184 2°45.146 -999 0.065363 0.384507 -1.279161
2009-02-20 12:35:39 51°37.378 2°45.276 -999 0.065363 0.38453 -1.279161
2009-02-20 12:36:39 51°37.573 2°45.406 -999 0.06526 0.383934 -1.279161
2009-02-20 12:37:39 51°37.77 2°45.528 -999 0.06526 0.383956 -1.279161
2009-02-20 12:38:39 51°37.965 2°45.659 -999 0.06526 0.383986 -1.279161
2009-02-20 12:39:39 51°38.162 2°45.789 -999 0.06526 0.384009 -1.279161
2009-02-20 12:40:39 51°38.359 2°45.917 -999 0.06526 0.384039 -1.279161
2009-02-20 12:41:39 51°38.557 2°46.043 -999 0.06526 0.384061 -1.279161
2009-02-20 12:42:39 51°38.75 2°46.167 -999 0.06526 0.384091 -1.279161
2009-02-20 12:43:39 51°38.945 2°46.294 -999 0.06526 0.384114 -1.279161
2009-02-20 12:44:39 51°39.141 2°46.415 -999 0.06526 0.384144 -1.244337
2009-02-20 12:45:39 51°39.336 2°46.539 -999 0.06526 0.384166 -1.279161
2009-02-20 12:46:39 51°39.531 2°46.662 -999 0.06526 0.384204 -1.279161
2009-02-20 12:47:39 51°39.724 2°46.78 -999 0.06526 0.384226 -1.279161
2009-02-20 12:48:39 51°39.918 2°46.899 -999 0.06526 0.384249 -1.279161
2009-02-20 12:49:39 51°40.112 2°47.022 -999 0.06526 0.384279 -1.279161
2009-02-20 12:50:39 51°40.306 2°47.141 -999 0.06526 0.384301 -1.279161
2009-02-20 12:51:39 51°40.5 2°47.259 -999 0.06526 0.384324 -1.279161
2009-02-20 12:52:39 51°40.692 2°47.383 -999 0.06526 0.384361 -1.279161
2009-02-20 12:53:39 51°40.882 2°47.509 -999 0.06526 0.384384 -1.279161
2009-02-20 12:54:39 51°41.071 2°47.631 -999 0.06526 0.384406 -1.279161
2009-02-20 12:55:39 51°41.262 2°47.754 -999 0.06526 0.384444 -1.279161
2009-02-20 12:56:39 51°41.452 2°47.878 -999 0.06526 0.384474 -1.313985
2009-02-20 12:57:39 51°41.629 2°48.033 -999 0.06526 0.384504 -1.348809
2009-02-20 12:58:39 51°41.737 2°48.303 -999 0.06526 0.384542 -1.348809
2009-02-20 12:59:39 51°41.727 2°48.618 -999 0.06526 0.384564 -1.313985
2009-02-20 13:00:39 51°41.605 2°48.866 -999 0.06526 0.384655 -1.313985
2009-02-20 13:01:39 51°41.453 2°49.068 -999 0.06526 0.384617 -1.348809
2009-02-20 13:02:39 51°41.304 2°49.277 -999 0.06526 0.384715 -1.313985
2009-02-20 13:03:39 51°41.147 2°49.458 -999 0.06526 0.384805 -1.348809
2009-02-20 13:04:39 51°40.952 2°49.497 -999 0.06526 0.38473 -1.279161
2009-02-20 13:05:39 51°40.756 2°49.461 -999 0.06526 0.384798 -1.279161
2009-02-20 13:06:39 51°40.563 2°49.398 -999 0.06526 0.384805 -1.244337
2009-02-20 13:07:39 51°40.374 2°49.303 -999 0.06526 0.38482 -1.244337
2009-02-20 13:08:39 51°40.184 2°49.212 -999 0.06526 0.38485 -1.279161
2009-02-20 13:09:39 51°39.995 2°49.121 -999 0.06526 0.38488 -1.244337
2009-02-20 13:10:39 51°39.806 2°49.032 -999 0.06526 0.384926 -1.279161
2009-02-20 13:11:39 51°39.617 2°48.939 -999 0.06526 0.384948 -1.279161
2009-02-20 13:12:39 51°39.428 2°48.846 -999 0.06526 0.384978 -1.244337
2009-02-20 13:13:39 51°39.239 2°48.756 -999 0.06526 0.385001 -1.244337
2009-02-20 13:14:39 51°39.05 2°48.659 -999 0.065157 0.384411 -1.279161
2009-02-20 13:15:39 51°38.857 2°48.565 -999 0.06526 0.385061 -1.244337
2009-02-20 13:16:39 51°38.668 2°48.471 -999 0.06526 0.385107 -1.279161
2009-02-20 13:17:39 51°38.477 2°48.38 -999 0.06526 0.385129 -1.279161
2009-02-20 13:18:39 51°38.286 2°48.282 -999 0.065157 0.384539 -1.279161
2009-02-20 13:19:39 51°38.096 2°48.184 -999 0.065157 0.384569 -1.279161
2009-02-20 13:20:39 51°37.905 2°48.088 -999 0.065157 0.384584 -1.279161
2009-02-20 13:21:39 51°37.716 2°47.987 -999 0.065157 0.384629 -1.279161
2009-02-20 13:22:39 51°37.528 2°47.883 -999 0.065157 0.384689 -1.244337
2009-02-20 13:23:39 51°37.336 2°47.786 -999 0.065157 0.384697 -1.279161
2009-02-20 13:24:39 51°37.146 2°47.685 -999 0.065157 0.38475 -1.244337
2009-02-20 13:25:39 51°36.958 2°47.584 -999 0.065157 0.384772 -1.279161
2009-02-20 13:26:39 51°36.773 2°47.486 -999 0.065157 0.384803 -1.279161
2009-02-20 13:27:39 51°36.59 2°47.39 -999 0.065157 0.38484 -1.279161
2009-02-20 13:28:39 51°36.407 2°47.284 -999 0.065157 0.384908 -1.279161
2009-02-20 13:29:39 51°36.223 2°47.184 -999 0.065157 0.384916 -1.279161
2009-02-20 13:30:39 51°36.038 2°47.088 -999 0.065157 0.384931 -1.279161
2009-02-20 13:31:39 51°35.854 2°46.985 -999 0.065157 0.384961 -1.279161
2009-02-20 13:32:39 51°35.672 2°46.876 -999 0.065157 0.385022 -1.279161
2009-02-20 13:33:39 51°35.488 2°46.77 -999 0.065157 0.385022 -1.279161
2009-02-20 13:34:39 51°35.301 2°46.659 -999 0.065157 0.385052 -1.279161
2009-02-20 13:35:39 51°35.113 2°46.548 -999 0.065157 0.385075 -1.279161
2009-02-20 13:36:39 51°34.926 2°46.443 -999 0.065157 0.385097 -1.279161
2009-02-20 13:37:39 51°34.739 2°46.345 -999 0.065157 0.385135 -1.279161
2009-02-20 13:38:39 51°34.551 2°46.246 -999 0.065157 0.38515 -1.279161
2009-02-20 13:39:39 51°34.363 2°46.141 -999 0.065157 0.385188 -1.279161
2009-02-20 13:40:39 51°34.175 2°46.04 -999 0.065157 0.385218 -1.279161
2009-02-20 13:41:39 51°33.986 2°45.939 -999 0.065157 0.385249 -1.279161
2009-02-20 13:42:39 51°33.798 2°45.826 -999 0.065157 0.385279 -1.279161
2009-02-20 13:43:39 51°33.608 2°45.716 -999 0.065157 0.385324 -1.279161
2009-02-20 13:44:39 51°33.419 2°45.605 -999 0.065157 0.385339 -1.279161
2009-02-20 13:45:39 51°33.229 2°45.494 -999 0.065157 0.38537 -1.279161
2009-02-20 13:46:39 51°33.039 2°45.384 -999 0.065157 0.385423 -1.279161
2009-02-20 13:47:39 51°32.848 2°45.277 -999 0.065157 0.385453 -1.279161
2009-02-20 13:48:39 51°32.657 2°45.173 -999 0.065157 0.385506 -1.279161
2009-02-20 13:49:39 51°32.467 2°45.066 -999 0.065157 0.385536 -1.279161
2009-02-20 13:50:39 51°32.279 2°44.956 -999 0.065157 0.385567 -1.279161
2009-02-20 13:51:39 51°32.088 2°44.853 -999 0.065157 0.385612 -1.279161
2009-02-20 13:52:39 51°31.897 2°44.744 -999 0.065157 0.385658 -1.279161
2009-02-20 13:53:39 51°31.705 2°44.643 -999 0.065157 0.385703 -1.279161
2009-02-20 13:54:39 51°31.513 2°44.531 -999 0.065054 0.385111 -1.279161
2009-02-20 13:55:39 51°31.323 2°44.418 -999 0.065054 0.385141 -1.279161
2009-02-20 13:56:39 51°31.131 2°44.303 -999 0.065054 0.385209 -1.279161
2009-02-20 13:57:39 51°30.94 2°44.192 -999 0.065054 0.385262 -1.279161
2009-02-20 13:58:39 51°30.75 2°44.082 -999 0.065054 0.38527 -1.279161
2009-02-20 13:59:39 51°30.557 2°43.967 -999 0.065054 0.385323 -1.279161
2009-02-20 14:00:39 51°30.365 2°43.86 -999 0.065054 0.385369 -1.279161
2009-02-20 14:01:39 51°30.175 2°43.751 -999 0.065054 0.385422 -1.279161
2009-02-20 14:02:39 51°29.984 2°43.648 -999 0.065054 0.38549 -1.279161
2009-02-20 14:03:39 51°29.793 2°43.536 -999 0.065054 0.385528 -1.279161
2009-02-20 14:04:39 51°29.601 2°43.426 -999 0.065054 0.385574 -1.279161
2009-02-20 14:05:39 51°29.407 2°43.464 -999 0.065054 0.385619 -1.313985
2009-02-20 14:06:39 51°29.216 2°43.579 -999 0.065054 0.38568 -1.313985
2009-02-20 14:07:39 51°29.038 2°43.732 -999 0.065054 0.385749 -1.313985
2009-02-20 14:08:39 51°28.864 2°43.892 -999 0.065054 0.385756 -1.279161
2009-02-20 14:09:39 51°28.692 2°44.045 -999 0.065054 0.385787 -1.279161
2009-02-20 14:10:39 51°28.517 2°44.199 -999 0.065054 0.385893 -1.279161
2009-02-20 14:11:39 51°28.341 2°44.349 -999 0.065054 0.385893 -1.279161
2009-02-20 14:12:39 51°28.166 2°44.496 -999 0.064951 0.385262 -1.313985
2009-02-20 14:13:39 51°27.989 2°44.641 -999 0.064951 0.38533 -1.279161
2009-02-20 14:14:39 51°27.814 2°44.791 -999 0.064951 0.385322 -1.313985
2009-02-20 14:15:39 51°27.641 2°44.941 -999 0.064951 0.385368 -1.279161
2009-02-20 14:16:39 51°27.464 2°45.09 -999 0.064951 0.385368 -1.279161
2009-02-20 14:17:39 51°27.287 2°45.238 -999 0.064951 0.385383 -1.279161
2009-02-20 14:18:39 51°27.108 2°45.386 -999 0.064951 0.385406 -1.279161
2009-02-20 14:19:39 51°26.93 2°45.535 -999 0.064951 0.385429 -1.279161
2009-02-20 14:20:39 51°26.753 2°45.688 -999 0.064951 0.385436 -1.279161
2009-02-20 14:21:39 51°26.574 2°45.836 -999 0.064951 0.385444 -1.279161
2009-02-20 14:22:39 51°26.397 2°45.989 -999 0.064951 0.385459 -1.279161
2009-02-20 14:23:39 51°26.218 2°46.14 -999 0.064951 0.385467 -1.279161
2009-02-20 14:24:39 51°26.038 2°46.281 -999 0.064951 0.385459 -1.279161
2009-02-20 14:25:39 51°25.848 2°46.387 -999 0.064951 0.385467 -1.279161
2009-02-20 14:26:39 51°25.65 2°46.436 -999 0.064951 0.385475 -1.313985
2009-02-20 14:27:39 51°25.451 2°46.47 -999 0.064951 0.385505 -1.313985
2009-02-20 14:28:39 51°25.255 2°46.533 -999 0.064951 0.385573 -1.313985
2009-02-20 14:29:39 51°25.065 2°46.629 -999 0.064951 0.385627 -1.313985
2009-02-20 14:30:39 51°24.885 2°46.768 -999 0.064951 0.38565 -1.313985
2009-02-20 14:31:39 51°24.705 2°46.906 -999 0.064951 0.385657 -1.279161
2009-02-20 14:32:39 51°24.524 2°47.038 -999 0.064951 0.385672 -1.313985
2009-02-20 14:33:39 51°24.341 2°47.172 -999 0.064951 0.385688 -1.313985
2009-02-20 14:34:39 51°24.156 2°47.303 -999 0.064951 0.385741 -1.279161
2009-02-20 14:35:39 51°23.977 2°47.454 -999 0.064951 0.385794 -1.279161
2009-02-20 14:36:39 51°23.802 2°47.603 -999 0.064951 0.385825 -1.313985
2009-02-20 14:37:39 51°23.628 2°47.749 -999 0.064951 0.385833 -1.313985
2009-02-20 14:38:39 51°23.455 2°47.898 -999 0.064951 0.385855 -1.279161
2009-02-20 14:39:39 51°23.283 2°48.045 -999 0.064951 0.385886 -1.313985
2009-02-20 14:40:39 51°23.112 2°48.196 -999 0.064951 0.385901 -1.348809
2009-02-20 14:41:39 51°22.936 2°48.344 -999 0.064951 0.385932 -1.313985
2009-02-20 14:42:39 51°22.76 2°48.488 -999 0.064951 0.385955 -1.313985
2009-02-20 14:43:39 51°22.581 2°48.631 -999 0.064951 0.385985 -1.313985
2009-02-20 14:44:39 51°22.404 2°48.774 -999 0.064951 0.385993 -1.313985
2009-02-20 14:45:39 51°22.233 2°48.915 -999 0.064951 0.386031 -1.313985
2009-02-20 14:46:39 51°22.055 2°49.037 -999 0.064848 0.385391 -1.313985
2009-02-20 14:47:39 51°21.871 2°49.149 -999 0.064848 0.385436 -1.313985
2009-02-20 14:48:39 51°21.69 2°49.265 -999 0.064848 0.385413 -1.313985
2009-02-20 14:49:39 51°21.504 2°49.381 -999 0.064848 0.385436 -1.313985
2009-02-20 14:50:39 51°21.319 2°49.499 -999 0.064848 0.385444 -1.313985
2009-02-20 14:51:39 51°21.135 2°49.623 -999 0.064848 0.385459 -1.313985
2009-02-20 14:52:39 51°20.954 2°49.745 -999 0.064848 0.38549 -1.313985
2009-02-20 14:53:39 51°20.774 2°49.875 -999 0.064848 0.385474 -1.313985
2009-02-20 14:54:39 51°20.592 2°50.004 -999 0.064848 0.385467 -1.313985
2009-02-20 14:55:39 51°20.411 2°50.131 -999 0.064848 0.385474 -1.313985
2009-02-20 14:56:39 51°20.228 2°50.25 -999 0.064848 0.385497 -1.313985
2009-02-20 14:57:39 51°20.044 2°50.375 -999 0.064848 0.385497 -1.313985
2009-02-20 14:58:39 51°19.86 2°50.504 -999 0.064848 0.385513 -1.313985
2009-02-20 14:59:39 51°19.682 2°50.638 -999 0.064848 0.385505 -1.313985
2009-02-20 15:00:39 51°19.501 2°50.763 -999 0.064848 0.38552 -1.313985
2009-02-20 15:01:39 51°19.318 2°50.889 -999 0.064848 0.385528 -1.313985
2009-02-20 15:02:39 51°19.133 2°51.014 -999 0.064848 0.385551 -1.313985
2009-02-20 15:03:39 51°18.949 2°51.143 -999 0.064848 0.385581 -1.279161
2009-02-20 15:04:39 51°18.765 2°51.265 -999 0.064848 0.385596 -1.313985
2009-02-20 15:05:39 51°18.578 2°51.388 -999 0.064848 0.385589 -1.313985
2009-02-20 15:06:39 51°18.393 2°51.512 -999 0.064848 0.385581 -1.313985
2009-02-20 15:07:39 51°18.201 2°51.613 -999 0.064848 0.385604 -1.313985
2009-02-20 15:08:39 51°18.012 2°51.713 -999 0.064848 0.385619 -1.313985
2009-02-20 15:09:39 51°17.823 2°51.811 -999 0.064848 0.385619 -1.313985
2009-02-20 15:10:39 51°17.636 2°51.925 -999 0.064848 0.385612 -1.313985
2009-02-20 15:11:39 51°17.453 2°52.058 -999 0.064848 0.385627 -1.313985
2009-02-20 15:12:39 51°17.27 2°52.188 -999 0.064848 0.38565 -1.348809
2009-02-20 15:13:39 51°17.084 2°52.316 -999 0.064848 0.385658 -1.313985
2009-02-20 15:14:39 51°16.899 2°52.439 -999 0.064848 0.38568 -1.313985
2009-02-20 15:15:39 51°16.72 2°52.578 -999 0.064848 0.385703 -1.313985
2009-02-20 15:16:39 51°16.533 2°52.699 -999 0.064848 0.385734 -1.279161
2009-02-20 15:17:39 51°16.343 2°52.815 -999 0.064848 0.385764 -1.313985
2009-02-20 15:18:39 51°16.153 2°52.927 -999 0.064848 0.385787 -1.313985
2009-02-20 15:19:39 51°15.963 2°53.044 -999 0.064848 0.38581 -1.313985
2009-02-20 15:20:39 51°15.777 2°53.172 -999 0.064848 0.385856 -1.313985
2009-02-20 15:21:39 51°15.592 2°53.304 -999 0.064848 0.385902 -1.313985
2009-02-20 15:22:39 51°15.406 2°53.432 -999 0.064848 0.38591 -1.313985
2009-02-20 15:23:39 51°15.227 2°53.574 -999 0.064848 0.385948 -1.313985
2009-02-20 15:24:39 51°15.047 2°53.72 -999 0.064848 0.385971 -1.313985
2009-02-20 15:25:39 51°14.893 2°53.915 -999 0.064848 0.386009 -1.313985
2009-02-20 15:26:39 51°14.763 2°54.147 -999 0.064848 0.386055 -1.313985
2009-02-20 15:27:39 51°14.652 2°54.403 -999 0.064848 0.386086 -1.313985
2009-02-20 15:28:39 51°14.538 2°54.653 -999 0.064848 0.386109 -1.313985
2009-02-20 15:29:39 51°14.439 2°54.914 -999 0.064848 0.386124 -1.313985
2009-02-20 15:30:39 51°14.327 2°55.165 -999 0.064848 0.386154 -1.313985
2009-02-20 15:31:39 51°14.221 2°55.32 -999 0.064848 0.386177 -1.313985
2009-02-20 15:32:39 51°14.112 2°55.438 -999 0.064848 0.386208 -1.313985
2009-02-20 15:33:39 51°13.989 2°55.522 -999 0.064848 0.386239 -1.313985
2009-02-20 15:34:39 51°13.864 2°55.605 -999 0.064848 0.386262 -1.313985
2009-02-20 15:35:39 51°13.751 2°55.695 -999 0.064848 0.386292 -1.313985
2009-02-20 15:36:40 51°13.693 2°55.818 -999 0.064848 0.386308 -1.313985
2009-02-20 15:37:40 51°13.665 2°55.925 -999 0.064848 0.386323 -1.313985